STARLINK-32955, 63117

Orbit data source: Space-Track

STARLINK-32955, 63117 is a payload satellite owned by SpaceX/Seattle (US) in LEO that was launched on Thu, 27 Feb 2025 UTC via an FALCON 9 launch vehicle from the Air Force Eastern Test Range (AFETR). Payload-class satellites include a variety of spacecraft equipped with specific instruments for various scientific and technological missions. These include communications satellites like Starlink; space stations such as the ISS; scientific satellites like the Hubble; Earth observation satellites from companies like Planet Labs, Umbra, and HawkEye 360; GPS; miniature CubeSats for education and research; and military/defense satellites.

Loading next visibility...
Identifier
63117, 2025-039P
Orbit
LEO
Country
Flag of USUS
Related business
Manufacturer
SpaceX/Seattle
Mission
Operational Commercial Communications
Bus & Motor
STARLINK V2M, Unknown motor
Mass
730 kg wet, ~700 kg dry
Launch date (UTC)
2025-02-27 (11 months ago)
Launch vehicle
FALCON 9
Launch site
Air Force Eastern Test Range (AFETR)
Object type
Payload
Rocket body
Debris
Shape & HBR
Box + 2 Pan, 17.7 m
Radar Cross Section
33.884 m², Large (>1 m²)

Expand to show TLE details & history
Last TLE update: 14 hours ago

TLE from 14 hours ago
0 STARLINK-32955
1 63117U 25039P   26034.90879771  .00027013  00000-0  97850-3 0  9995
2 63117  43.0021 203.2854 0001488 270.4374  89.6308 15.27882967 52907
Epoch: 2026-02-03T21:48Z
TLE epoch observation values (Epoch: 2026-02-03T21:48:40.122Z)
Latitude
0.00005°
Longitude
102.0353°
Altitude
481.911 km
Speed
7.626 km/s
True Right ascension
13h 33m 08s
True Declination
0° 00' 00"
Sunlit
Object was in full shadow at epoch
Visualization orbit readout
Latitude
Unknown
Longitude
Unknown
Altitude
Unknown
Speed
Unknown
Apparent Right ascension
Unknown
Apparent Declination
Unknown
Sunlit
N/A
Visualization observer readout
Local Sidereal Time
14:02:12
Azimuth
Unknown
Elevation
Unknown
Doppler factor
Unknown
Orbital elements
Apogee altitude
485.108 km
Perigee altitude
483.066 km
Semi-major axis
6,862.224 km
Eccentricity
0.00015
Inclination
43.0021°
RAAN
203.2854°
Arg. of periapsis
270.4374°
True anomaly
89.64785°
Mean anomaly
89.6308°
Eccentric anomaly
89.63933°
Mean motion
3.81809 °/min
Orbital period
94.29 mins
BSTAR
0.0009785
Loading maneuver chart data...
Computing Atmospheric mass density...
Loading historical data...
Loading historical data...
Loading historical data...
Loading historical data...
Loading historical data...
Loading historical data...
Loading historical data...

Documentation

Showing up to 5 results
|